Home   Weather   Colón   Past weeks

Flag for Panama Past Weather in Colón, Panama — Yesterday and Last 2 Weeks

77 °F

Scattered clouds.

Feels Like: 78 °F
Forecast: 77 / 89 °F
Wind: 3 mph from North

Location: Marcos A. Gelabert

Current Time: Oct 28, 2016 at 7:30:30 AM

Latest Report: Oct 28, 2016 at 7:00 AM

Visibility: N/A

Pressure: 29.86 "Hg

Humidity: 94%

Dew Point: 75 °F

Location of ColónLocation

Past Weather in Colón — Graph


Colón Temperature Yesterday

Maximum temperature yesterday: 84 °F (at 12:00 PM)
Minimum temperature yesterday: 73 °F (at 6:00 AM)
Average temperature yesterday: 80 °F

High & Low Weather Summary for the Past Weeks

High90 °F (Oct 14, 12:00 PM)100% (Oct 16, 8:00 PM)29.92 "Hg (Oct 16, 8:00 PM)
Low73 °F (Oct 16, 8:00 PM)59% (Oct 14, 3:00 PM)29.74 "Hg (Oct 20, 3:00 PM)
Average80 °F86%29.84 "Hg
* Reported Oct 13 6:00 AM — Oct 28 6:00 AM, Colón, Weather by CustomWeather, © 2016

Note: Actual official high and low records may vary slightly from our data, if they occured in-between our weather recording intervals... More about our weather records


Colón Weather History for the Previous 24 Hours

Scroll right to see more
Time TempWeatherWind HumidityBarometerVisibility
6:00 AM
Fri, Oct 28
77 °FPassing clouds.No wind94%29.83 "HgN/A
10:00 PM
Thu, Oct 27
77 °FPassing clouds.No wind94%29.86 "HgN/A
9:00 PM77 °FPassing clouds.No wind94%29.83 "HgN/A
8:00 PM79 °FPassing clouds.2 mph89%29.83 "HgN/A
7:00 PM81 °FPassing clouds.3 mph84%29.80 "HgN/A
6:00 PM81 °FPassing clouds.3 mph84%29.77 "HgN/A
5:00 PM81 °FScattered clouds.7 mph84%29.77 "HgN/A
4:00 PM81 °FScattered clouds.7 mph84%29.77 "HgN/A
3:00 PM84 °FScattered clouds.7 mph74%29.77 "HgN/A
2:00 PM84 °FPassing clouds.5 mph74%29.80 "HgN/A
1:00 PM84 °FScattered clouds.6 mph79%29.83 "Hg6 mi
12:00 PM84 °FScattered clouds.8 mph79%29.86 "Hg6 mi
11:00 AM82 °FScattered clouds.7 mph74%29.89 "Hg6 mi
10:00 AM81 °FScattered showers. Scattered clouds.No wind84%29.89 "Hg6 mi
9:00 AM81 °FScattered showers. Scattered clouds.5 mph84%29.89 "Hg6 mi
8:00 AM79 °FPassing clouds.2 mph89%29.86 "Hg6 mi
7:00 AM73 °FPassing clouds.No wind94%29.86 "Hg6 mi
Weather by CustomWeather, © 2016

See weather overviewHow to use our weather pages